"Pseudo-MPEC" for N00kot1

Created 2022 Sep 30 13:22:21 UT using Find_Orb

Click here for an explanation of pseudo-MPECs

 
 Astrometry: 
     N00kot1* S2022 09 243FLCQ'JleU$X$stN7v2\?N8+5uZLyGs%j$`lNRW^0jb2c\`3s7RGC51
     N00kot1  s2022 09 24)]6XqcWs\\c`v0hNAL91hKt%fO89@j:I'Q'S:9LPOi6LSXTu+m`MC51
     N00kot1  S2022 09 24?[R+djD*4^Sp54#)MOYWrI)L(]!gQa:JvGU`kSDkQP'fSdm\DJTmC51
     N00kot1  s2022 09 24-ZOk[AstrometryvC1FsXU4I.X)y03ZPfEwHCHW6U7@s\vpGBCYwC51
     N00kot1  S2022 09 24W]_jf9Ts^@r[Co)`9k96hd22wdCZ#g!A!jYu;2xrr7R+\nAK2-70C51
     N00kot1  s2022 09 24K4jOkkwF5WvRLndJg6b+hmA\hFoO]Y!LI*(ou%;167=,'gMq)2_vC51
     N00kot1  S2022 09 24SuTDmk#H='REv(%kmo)02i7ypb((GX5BPigw5DFRKRRGZW9Mv78?C51
     N00kot1  s2022 09 24(k5jMq7_,45P!3eE3qKeIrZ1';a?SGy;82)@redacted;s=U#rBBC51
     N00kot1  S2022 09 25r/mCOq;OQ'0lhOIwSdi3QrS$6c[._WoJ#DA?MM]sBgMk0-:aYG?IC51
     N00kot1  s2022 09 250XpW8?[c#5jPi'#1HQ#fW3MKN-MmV]GhS$[r_Q5@YF/;J@c!wP20C51
     N00kot1  S2022 09 25W88de_uH,=Vdx($)r@IQAXlkSVF*`2o=J-\imWlyNHM*B0VZ.]lTC51
     N00kot1  s2022 09 25(ydN*$ayve,XUSiG-=IKDSmU0c5rG[O[EX?I?E*$W_XF`?/jbc7=C51
     N00kot1  S2022 09 25M,yGB%QW$/vN(nMfL_^+f#Ivmf9*]f+j?,fD7CIsQ(gXom=uR#aUC51
     N00kot1  s2022 09 25L7#lP-Pplt5S`4j]]kVhMwFBjqBAYRGJU:!jKcda$u`a2+=TYnU^C51
     N00kot1  S2022 09 25M[9`ga0v!e8E7!/xqgMXN9=EmP9G,Q@YfYsS@)OuoB@,w)^op1'xC51
     N00kot1  s2022 09 25$DCqO6r[h8nTLgblJkB?gb%elc4N;;R9^#huv#=hqK:^ga/3](E.C51
     N00kot1  S2022 09 25ekKy.Tn#`.;dPj:T-\KYQdlM3OU4N=S@C-(w!+]c!:koHxRs1]7fC51
     N00kot1  s2022 09 25Ody$t3,kAL4N.1OmI9n$-_tU7(#c@il^hJXVVJw)8%kJT_MGSQ.lC51
     N00kot1  S2022 09 25Kc)+F`nfO`$0]NgaKJyP;#^TP`a\nSa27m2wax'Eclick29sSx#TC51
     N00kot1  s2022 09 25(sW@MbiDOv+a3xMe:Kl'kNu(Op_)x2a:#E)GN%,im+2EAX;IiwAKC51
     N00kot1  S2022 09 25M7e05wq-kN,tuZ(IGgeYf,7'/:J`[PgLoxaFIn8x!2s5fU_gB$FbC51
     N00kot1  s2022 09 2517it+n4fDl9S9#Q!WOl**+r'0rCud3Io[]6%_(r961=8=rI[Go?,C51
     N00kot1  S2022 09 25!kged0`Nw/wXF37,cyRupDliGMjlvq^=\Nv*K_'^,oule_k=4;+bC51
     N00kot1  s2022 09 25-OXSPkC2mKcQQH35T(0FmIld].Y=mAJBS$H)olp=qYHH[[]6cH60C51
     N00kot1  S2022 09 25q\NUj-r7(wZ\!\?J(5gH6H*K,tiTdS%G(Z7i-)r*=.+yM/(=Q\?AC51
     N00kot1  s2022 09 25^#ljQ[x5$cq8T`E]2O@4THx6?Or8pV!mRScg18$[xIr1SMhere+AC51
     N00kot1  S2022 09 25'S?=Lniey[[T(3.lTsrlw-D!/TS;O4Ho+u=t`\MAq(I^jo8ch^aOC51
     N00kot1  s2022 09 25(U8pb-EvUn'*2UjH)e?1iW!8oZ-Y05u?'k(4kXD_`NKossx8lc[IC51
     N00kot1  S2022 09 26dtr).%bo^^P)@?Nxc48k9.dg`WYJ8]4f/qui498LQh/Ka^JJLpeJC51
     N00kot1  s2022 09 264Rforekf5*##JfuEUc9m5j6Dpw\@.\rNa,Zx;\#,jm,yVEmEi)D_C51
     N00kot1  S2022 09 26ZY\ipTq1;Q79RRO/J5SASN@Ft0)Icx)FgyT80oj!bvS7+#'9uHlJC51
     N00kot1  s2022 09 26ClDSO8:_8\8GtHIY:Vp4Q9/_3CQ1PM,rBFeX^f,-(K0a?A2sUc2=C51
     N00kot1  S2022 09 26KR:V=D6E+cAQNy5:+vv0-8P($I7A6U9;a-r%R.$]qEhyD#m)D:a\C51
     N00kot1  s2022 09 26Di:G[75tSQexplanation(KV4Y4K+Y9*WR`pvTWXRLZ-kJ\D!o1RC51
     N00kot1  S2022 09 26)E#h$L52$u)*:26o^jOl\y(ZTFPex30UUhq'#],Sf`7[sMPWrY#TC51
     N00kot1  s2022 09 263+4g+S)+c^`,/B/G(bghyH;'Rsy2P-E6A2A:e%E)=`i'\xNd;oRnC51
     N00kot1  S2022 09 26HuJAN\K['a#n]q3bppYV_`8^hVS^cGV1w,KcW-Dsdl0[LQP+b6lTC51
     N00kot1  s2022 09 26N4e'rN(N_%UkQr8pOc_7C1Bs=^/cm7wXJ,GxEL-jWYloPvK9[\G_C51
     N00kot1 |C2022 09 30UdC?'6V$HO(Tv'yhi4H6)x2/kGK'n062.U9xfrG;Uk[UGJx[L4?$807
     N00kot1 |C2022 09 30NIHyPdfOLvB$b:KWo[HP6oTh+ZWJ^Wx-YQ7v;$%AT!FpKse,uoBD807
     N00kot1 |C2022 09 30$eO^BSwy+^Y]v/RThN.it$_EQ$RLtNJR96[-g59LHPW\0y0h*v(P807

Station data:
(807) Cerro Tololo Observatory, La Serena  (S30.169133 W70.805900)  Chile.
   Observer R. Holmes. 0.61-m f/6.5 astrograph + CCD.
(C51) WISE. Measurers A. Mainzer, E. Wright, J. Bauer, T. Grav, J. Dailey, J.
   Masiero, R. Cutri, R. McMillan, R. Walker.

Orbital elements:  N00kot1
   Perihelion 2022 Oct 23.40190 +/- 0.715 TT =  9:38:44 (JD 2459875.90190)
Epoch 2022 Sep 30.0 TT = JDT 2459852.5   Earth MOID: 0.5976   AutoNEOCP
M 353.25489717 +/- 0.47             (J2000 ecliptic)
n   0.28822883 +/- 0.0132           Peri.  324.68313 +/- 0.36
a   2.26974866 +/- 0.0695           Node    22.16899 +/- 0.50
e   0.3162874 +/- 0.0171            Incl.   30.64190 +/- 0.30
P   3.42                   H 18.6   G  0.15   U  9.8
q 1.55185556 +/- 0.00919    Q 2.98764176 +/- 0.13
From 22 observations 2022 Sept. 24-30; mean residual 0".60
Residuals in arcseconds: 
220924 C51  .29-  .06+    220925 C51  .25-  .57+    220926 C51  1.4+  .32-    
220924 C51  .23-  .63-    220925 C51  .28-  1.3-    220926 C51  .38+  .39+    
220924 C51  .57+  .10+    220925 C51  .42+  .76-    220926 C51  .17+  .01-    
220924 C51  .31+  .88+    220925 C51  .74+  .43-    220930 807  .31+  .17-    
220925 C51  .42+  .14+    220925 C51  .55-  .09-    220930 807  .39-  .11+    
220925 C51  .38-  .57+    220925 C51  .10-  1.2+    220930 807  .08+  .06+    
220925 C51  .47-  .20+    220926 C51  .73-  .05+    
220925 C51  .71+  .23-    220926 C51  1.9-  .47-    

Ephemerides (geocentric):
Date (UTC) HH   RA             Dec           delta  r     elong  mag " sig PA
---- --------  ------------   ------------  ------ ------ -----  --- --------
2022 09 30 13  20 49 46.016   -58 02 19.46  .95896 1.5619 105.6 21.0 .210  98
2022 09 30 14  20 49 49.211   -58 00 42.16  .95907 1.5619 105.6 21.0 .232  98
2022 09 30 15  20 49 52.409   -57 59 04.84  .95917 1.5619 105.6 21.0 .253  99
2022 09 30 16  20 49 55.610   -57 57 27.49  .95928 1.5618 105.6 21.0 .275  99
2022 09 30 17  20 49 58.813   -57 55 50.11  .95939 1.5618 105.6 21.0 .297  99
2022 09 30 18  20 50 02.019   -57 54 12.71  .95949 1.5618 105.6 21.0 .319  99
2022 09 30 19  20 50 05.228   -57 52 35.28  .95960 1.5617 105.6 21.0 .342  99
2022 09 30 20  20 50 08.440   -57 50 57.82  .95971 1.5617 105.5 21.0 .365 100
2022 09 30 21  20 50 11.654   -57 49 20.34  .95981 1.5617 105.5 21.0 .388 100
2022 09 30 22  20 50 14.871   -57 47 42.84  .95992 1.5616 105.5 21.0 .412 100
2022 09 30 23  20 50 18.091   -57 46 05.31  .96003 1.5616 105.5 21.0 .436 100
2022 10 01 00  20 50 21.314   -57 44 27.75  .96014 1.5615 105.5 21.0 .460 100
2022 10 01 01  20 50 24.539   -57 42 50.17  .96024 1.5615 105.5 21.0 .485 100
2022 10 01 02  20 50 27.767   -57 41 12.56  .96035 1.5615 105.5 21.0 .510 100
2022 10 01 03  20 50 30.998   -57 39 34.93  .96046 1.5614 105.5 21.0 .535 100
2022 10 01 04  20 50 34.232   -57 37 57.27  .96057 1.5614 105.5 21.0 .561 100
2022 10 01 05  20 50 37.468   -57 36 19.59  .96068 1.5614 105.4 21.0 .586 100
2022 10 01 06  20 50 40.707   -57 34 41.88  .96079 1.5613 105.4 21.0 .612 100
2022 10 01 07  20 50 43.948   -57 33 04.15  .96090 1.5613 105.4 21.0 .639 101
2022 10 01 08  20 50 47.192   -57 31 26.40  .96100 1.5613 105.4 21.0 .666 101
2022 10 01 09  20 50 50.439   -57 29 48.61  .96111 1.5612 105.4 21.0 .693 101
2022 10 01 10  20 50 53.689   -57 28 10.81  .96122 1.5612 105.4 21.0 .720 101
2022 10 01 11  20 50 56.941   -57 26 32.98  .96133 1.5612 105.4 21.0 .748 101
2022 10 01 12  20 51 00.196   -57 24 55.12  .96144 1.5611 105.4 21.0 .776 101
2022 10 01 13  20 51 03.453   -57 23 17.24  .96155 1.5611 105.4 21.0 .804 101
2022 10 01 14  20 51 06.713   -57 21 39.33  .96166 1.5611 105.3 21.0 .832 101
2022 10 01 15  20 51 09.976   -57 20 01.40  .96178 1.5610 105.3 21.0 .861 101
2022 10 01 16  20 51 13.241   -57 18 23.45  .96189 1.5610 105.3 21.0 .890 101
2022 10 01 17  20 51 16.509   -57 16 45.47  .96200 1.5609 105.3 21.0 .920 101
2022 10 01 18  20 51 19.780   -57 15 07.47  .96211 1.5609 105.3 21.0 .950 101
2022 10 01 19  20 51 23.053   -57 13 29.44  .96222 1.5609 105.3 21.0 .980 101
2022 10 01 20  20 51 26.328   -57 11 51.39  .96233 1.5608 105.3 21.0 1.01 101
2022 10 01 21  20 51 29.607   -57 10 13.32  .96244 1.5608 105.3 21.0 1.04 101
2022 10 01 22  20 51 32.887   -57 08 35.22  .96256 1.5608 105.3 21.0 1.07 101
2022 10 01 23  20 51 36.171   -57 06 57.10  .96267 1.5607 105.3 21.0 1.10 101
2022 10 02 00  20 51 39.457   -57 05 18.95  .96278 1.5607 105.2 21.0 1.13 101
2022 10 02 01  20 51 42.745   -57 03 40.78  .96289 1.5607 105.2 21.0 1.17 101
2022 10 02 02  20 51 46.036   -57 02 02.59  .96301 1.5606 105.2 21.0 1.20 101
2022 10 02 03  20 51 49.330   -57 00 24.37  .96312 1.5606 105.2 21.0 1.23 101
2022 10 02 04  20 51 52.626   -56 58 46.13  .96323 1.5606 105.2 21.0 1.26 101
2022 10 02 05  20 51 55.924   -56 57 07.86  .96335 1.5605 105.2 21.0 1.30 101
2022 10 02 06  20 51 59.226   -56 55 29.57  .96346 1.5605 105.2 21.0 1.33 101
2022 10 02 07  20 52 02.529   -56 53 51.26  .96357 1.5605 105.2 21.0 1.36 101
2022 10 02 08  20 52 05.835   -56 52 12.93  .96369 1.5604 105.2 21.0 1.40 101
2022 10 02 09  20 52 09.144   -56 50 34.57  .96380 1.5604 105.1 21.0 1.43 101
2022 10 02 10  20 52 12.455   -56 48 56.19  .96392 1.5604 105.1 21.0 1.47 101
2022 10 02 11  20 52 15.769   -56 47 17.78  .96403 1.5603 105.1 21.0 1.50 101
2022 10 02 12  20 52 19.085   -56 45 39.35  .96415 1.5603 105.1 21.0 1.54 101